CW3071 Weather Reports


time (UTC)temp
C
wind
direction
speed
KPH
gust
KPH
rain 1hr
cm
rain 24hr
cm
rain mn
cm
humidity
%
barometer
mb
20260504173052 10 330 8.0 22.5 0.00 0.00 0.00 52 1013.3
20260504171551 10 4 11.3 25.7 0.00 0.00 0.00 51 1013.3
20260504081552 5 350 3.2 6.4 0.00 0.00 0.00 71 1009.0
20260504050108 8 350 1.6 8.0 0.00 0.00 0.00 62 1010.0
20260504044557 8 350 1.6 4.8 0.00 0.00 0.00 59 1010.1
20260504043055 9 350 1.6 6.4 0.00 0.00 0.00 57 1010.2
20260504041555 10 0 0.0 6.4 0.00 0.00 0.00 55 1010.2
20260504040057 11 350 3.2 4.8 0.00 0.00 0.00 52 1010.2
20260504034552 11 0 0.0 1.6 0.00 0.00 0.00 50 1010.1
20260504033053 11 0 1.6 6.4 0.00 0.00 0.00 49 1010.2
20260504031555 13 350 1.6 6.4 0.00 0.00 0.00 45 1010.1
20260504030055 14 37 1.6 4.8 0.00 0.00 0.00 40 1010.2
20260504024609 14 37 1.6 6.4 0.00 0.00 0.00 39 1010.1
20260504023054 15 34 3.2 6.4 0.00 0.00 0.00 40 1010.0
20260504021552 16 28 1.6 4.8 0.00 0.00 0.00 37 1010.1
20260504020057 16 28 1.6 6.4 0.00 0.00 0.00 35 1010.1
20260504014601 17 28 1.6 6.4 0.00 0.00 0.00 35 1010.0
20260504013056 18 23 3.2 8.0 0.00 0.00 0.00 32 1010.2
20260504011554 18 28 1.6 4.8 0.00 0.00 0.00 31 1010.2
20260504010104 18 355 4.8 9.7 0.00 0.00 0.00 30 1010.4
20260504004553 18 345 4.8 12.9 0.00 0.00 0.00 29 1010.6
20260504003059 18 345 8.0 14.5 0.00 0.00 0.00 29 1010.6
20260504001551 19 345 4.8 16.1 0.00 0.00 0.00 29 1010.8
20260504000134 19 9 4.8 9.7 0.00 0.00 0.00 28 1010.8
20260503234559 19 345 6.4 14.5 0.00 0.00 0.00 29 1011.0
20260503233051 18 329 9.7 20.9 0.00 0.00 0.00 29 1011.1
20260503231552 19 16 9.7 16.1 0.00 0.00 0.00 30 1011.3
20260503230056 19 345 8.0 20.9 0.00 0.00 0.00 30 1011.3
20260503224554 19 342 9.7 22.5 0.00 0.00 0.00 29 1011.4
20260503223055 18 355 6.4 19.3 0.00 0.00 0.00 30 1011.5
20260503221555 19 345 9.7 17.7 0.00 0.00 0.00 31 1011.6
20260503220057 19 345 9.7 24.1 0.00 0.00 0.00 30 1011.7
20260503214555 19 285 14.5 25.7 0.00 0.00 0.00 30 1011.8
20260503213100 18 22 9.7 20.9 0.00 0.00 0.00 31 1012.0
20260503211615 18 26 11.3 22.5 0.00 0.00 0.00 32 1012.1
20260503210056 18 26 11.3 25.7 0.00 0.00 0.00 38 1012.3
20260503204558 16 22 19.3 54.7 0.00 0.00 0.00 38 1012.5
20260503203114 21 319 16.1 37.0 0.00 0.00 0.00 24 1012.2
20260503201558 20 296 12.9 29.0 0.00 0.00 0.00 25 1012.1
20260503200057 19 335 9.7 19.3 0.00 0.00 0.00 32 1012.2
20260503194558 18 310 6.4 24.1 0.00 0.00 0.00 31 1012.5
20260503193059 18 296 8.0 19.3 0.00 0.00 0.00 32 1012.5
20260503191559 18 251 11.3 22.5 0.00 0.00 0.00 31 1013.1
20260503190055 18 217 6.4 24.1 0.00 0.00 0.00 32 1013.4
20260503184553 18 102 3.2 14.5 0.00 0.00 0.00 33 1013.8
20260503183049 17 175 6.4 16.1 0.00 0.00 0.00 34 1014.0
20260503181602 17 242 4.8 16.1 0.00 0.00 0.00 34 1014.2
20260503180059 17 175 3.2 16.1 0.00 0.00 0.00 36 1014.5
20260503174551 17 0 1.6 9.7 0.00 0.00 0.00 38 1014.7